Wind_Speed
15 18 21 24 27 29 31 34 36 37 38 40 42 42 42 41 42 41 40 39 39 38 36 35 35 34 33 32 31 29 28 27 26 26 24 24 23 22
15 17 19 21 24 28 30 32 34 37 39 40 42 42 42 42 42 42 42 42 41 40 39 38 37 36 35 35 34 32 31 31 30 29 28 27 26 25
13 15 17 19 22 25 28 30 33 35 37 39 40 42 43 43 44 43 43 43 42 42 41 40 39 38 38 38 37 36 35 33 33 32 31 30 29 28
11 12 14 16 18 22 25 27 30 33 35 37 39 40 41 43 44 44 45 44 43 44 44 43 42 41 40 40 40 39 38 37 36 35 34 33 32 32
10 10 11 13 15 17 21 24 27 29 32 35 36 38 39 40 41 43 44 45 45 44 44 43 43 42 42 42 42 42 41 40 39 38 37 36 35 34
9 9 10 11 12 14 16 20 23 26 30 33 35 36 36 38 40 40 41 42 43 44 45 44 44 44 43 43 44 44 43 42 41 40 40 39 37 36
9 9 9 10 10 12 14 16 19 22 26 30 33 34 36 37 38 39 39 41 42 42 43 44 45 45 45 45 45 45 44 44 43 42 41 41 40 38
10 9 8 9 10 11 13 14 16 19 22 25 29 32 34 36 38 39 39 40 42 42 43 43 43 44 44 45 44 44 45 45 45 44 44 43 42 40
11 10 9 9 10 11 12 13 15 17 20 22 25 28 31 33 36 37 38 39 40 42 43 43 44 43 44 45 45 44 45 46 47 46 46 45 43 42
12 11 10 10 10 10 11 13 14 16 17 19 21 24 28 30 33 35 36 37 39 40 42 42 42 42 42 44 45 46 46 46 46 46 46 46 45 44
13 13 12 11 11 11 11 13 14 15 16 18 20 22 24 27 29 32 34 35 37 38 40 40 41 41 42 43 44 46 46 46 46 47 47 46 46 46
14 13 13 13 12 12 12 12 13 15 16 17 19 21 23 25 27 29 31 34 35 36 38 40 41 42 41 42 43 44 45 45 46 47 48 48 48 48
15 14 14 13 13 13 13 13 13 14 15 17 18 20 22 23 25 27 30 31 33 34 36 38 39 40 40 40 42 43 44 45 46 46 46 47 47 47
16 15 15 15 14 15 15 15 15 15 16 17 18 19 21 23 24 26 28 30 31 32 34 36 37 38 39 39 39 41 43 44 45 45 45 45 46 47
17 17 16 16 16 17 17 16 16 17 17 18 18 19 21 23 24 26 28 30 30 31 33 35 36 37 38 38 38 39 40 42 43 44 44 43 44 45
19 19 18 18 18 19 19 19 19 19 19 20 20 21 22 23 24 26 28 29 30 31 33 34 36 36 36 37 38 38 38 38 40 42 42 43 43 44
22 21 21 21 20 21 21 21 22 22 22 23 23 24 24 25 25 26 28 29 30 31 33 34 35 36 37 37 37 37 38 38 39 41 42 42 42 44
24 24 24 24 24 24 24 25 25 25 25 25 26 26 27 27 27 27 28 29 30 32 33 34 35 36 36 37 37 37 37 38 39 40 40 41 42 42
26 26 26 27 27 27 27 27 28 28 28 28 28 28 29 30 30 30 29 30 31 32 33 35 36 37 37 36 36 37 38 38 39 40 40 41 42 42
28 28 28 29 29 29 30 30 30 31 31 32 32 32 32 32 32 33 33 32 32 33 34 35 37 37 37 37 37 37 38 38 39 40 40 40 40 40
31 31 31 31 32 32 33 33 33 33 33 34 34 35 35 35 35 36 36 36 36 36 36 37 38 39 39 38 38 37 38 39 39 39 40 41 42 41
33 34 34 34 35 35 35 36 36 36 36 37 37 37 38 38 39 39 39 39 39 39 39 39 39 40 40 40 39 38 38 39 39 40 40 41 41 41
36 37 37 38 38 39 39 39 39 39 40 40 40 41 41 41 41 41 42 42 42 42 42 42 42 42 41 41 40 39 39 39 39 40 40 40 41 41
Wind_Direction
260 252 247 244 240 238 238 236 234 233 232 231 231 230 231 232 231 232 233 234 235 235 235 236 238 239 240 241 242 244 245 247 250 253 255 258 262 266
269 258 253 249 245 241 240 237 236 235 234 234 233 232 233 234 234 233 233 233 235 236 236 237 238 240 241 242 242 244 246 248 251 253 256 258 261 265
278 266 258 255 251 246 242 240 237 235 233 234 234 234 233 234 235 234 233 235 235 237 238 238 239 240 242 242 243 245 246 248 251 254 256 258 261 264
288 273 265 261 256 251 246 243 238 235 233 233 234 236 236 235 235 236 236 236 238 238 239 240 241 242 243 244 245 245 247 249 251 253 255 258 260 263
304 285 274 268 263 255 249 244 240 236 234 234 235 236 237 237 236 236 237 238 239 240 241 242 243 244 245 245 246 246 247 249 251 253 255 257 259 261
319 301 287 277 270 262 254 248 243 239 237 236 236 237 239 239 239 239 239 239 241 242 242 242 243 244 245 246 247 247 248 249 250 252 255 256 257 259
329 316 303 290 281 272 262 254 248 244 242 240 239 240 240 240 240 240 240 240 241 243 243 242 243 244 246 248 248 248 249 250 251 252 254 255 256 257
333 323 312 301 290 281 267 258 253 249 248 246 244 242 241 241 241 242 242 243 242 243 244 243 244 245 245 246 247 249 249 249 250 251 251 254 255 256
331 326 318 309 298 286 273 264 259 256 253 252 249 246 245 243 242 243 244 244 244 245 245 244 244 247 247 248 248 248 249 249 249 250 251 252 254 255
332 327 320 313 307 295 284 277 270 264 259 255 252 250 250 249 248 247 247 247 247 247 246 245 245 247 247 247 247 247 248 248 249 250 250 251 253 254
332 326 321 316 310 302 293 287 280 273 267 261 256 253 253 254 254 252 250 248 247 247 248 248 248 249 249 248 248 248 250 249 250 251 251 250 251 253
330 327 323 318 311 306 300 293 288 281 273 269 264 258 257 258 257 255 252 250 249 248 248 249 249 248 248 248 249 250 251 250 250 250 251 251 252 252
324 322 320 318 313 307 302 296 292 287 281 277 273 268 264 261 260 257 255 253 251 250 250 250 250 249 249 249 250 250 251 251 250 250 250 250 251 251
318 317 316 314 311 307 303 298 291 287 284 281 278 274 270 267 263 261 258 255 253 252 251 252 253 252 252 252 252 252 253 252 251 251 251 250 250 251
316 313 311 310 308 306 303 299 295 289 285 282 280 276 273 271 268 264 261 258 257 254 253 253 253 255 255 256 256 254 253 254 254 253 252 253 252 251
314 311 308 306 304 302 301 298 295 291 287 283 281 279 276 274 271 269 266 261 258 255 255 254 254 256 257 258 258 257 255 255 254 254 254 253 253 252
310 309 307 303 301 300 298 297 294 292 289 285 281 280 278 276 274 273 271 266 260 257 256 255 255 256 257 258 258 258 258 256 255 256 256 256 255 254
305 305 304 302 299 297 296 295 293 291 288 286 284 281 278 276 275 274 273 270 265 261 259 258 258 259 259 259 259 259 259 257 255 255 254 254 255 255
302 302 301 300 298 296 294 293 292 290 289 286 284 282 279 277 275 273 272 269 267 264 261 260 260 261 261 261 260 260 260 259 257 255 254 254 253 252
300 300 299 299 298 297 295 294 292 290 288 287 285 283 282 279 276 273 271 270 269 266 264 261 261 261 261 261 259 259 259 258 258 257 257 255 253 252
299 298 298 297 297 296 295 294 292 290 289 287 286 284 283 281 278 276 273 270 269 267 265 263 262 261 261 261 260 260 260 259 258 258 257 255 255 254
298 298 297 296 296 295 294 293 291 290 289 287 286 284 283 281 279 277 275 272 270 267 265 263 262 261 261 261 260 260 259 259 258 257 256 256 255 254
298 297 297 296 295 294 293 292 290 289 288 287 285 284 283 281 279 277 275 272 270 267 265 263 261 261 260 260 259 258 258 257 257 258 257 255 255 253
Height
5754 5756 5757 5759 5761 5764 5767 5770 5774 5778 5783 5787 5792 5796 5800 5805 5810 5815 5819 5823 5827 5831 5835 5838 5842 5845 5848 5851 5853 5856 5858 5860 5862 5863 5865 5866 5867 5868
5749 5750 5751 5753 5754 5756 5759 5762 5765 5770 5774 5778 5783 5787 5792 5797 5801 5806 5811 5815 5819 5823 5827 5831 5834 5837 5841 5844 5846 5849 5851 5853 5855 5857 5859 5860 5861 5862
5744 5745 5745 5746 5747 5749 5751 5754 5757 5761 5765 5769 5773 5778 5783 5788 5793 5797 5802 5806 5810 5815 5818 5822 5826 5829 5832 5836 5839 5841 5844 5846 5848 5850 5852 5853 5855 5856
5740 5740 5740 5740 5741 5742 5744 5746 5749 5752 5757 5761 5765 5769 5774 5779 5784 5788 5792 5797 5801 5805 5809 5813 5817 5820 5824 5827 5830 5833 5836 5838 5840 5842 5844 5846 5847 5848
5735 5735 5735 5735 5736 5736 5737 5739 5742 5745 5749 5753 5757 5761 5765 5770 5774 5779 5783 5787 5792 5795 5799 5803 5807 5811 5814 5817 5820 5824 5826 5829 5832 5834 5836 5837 5839 5840
5732 5731 5731 5731 5731 5732 5732 5734 5736 5738 5741 5745 5749 5753 5757 5761 5765 5770 5774 5778 5782 5786 5789 5793 5797 5800 5804 5807 5811 5814 5817 5819 5822 5824 5826 5828 5830 5832
5730 5729 5728 5728 5728 5728 5728 5729 5730 5732 5735 5738 5741 5745 5748 5752 5756 5760 5764 5768 5772 5775 5779 5784 5787 5791 5794 5797 5800 5803 5806 5809 5812 5814 5816 5818 5820 5822
5728 5727 5726 5726 5725 5724 5724 5725 5726 5727 5729 5731 5734 5737 5740 5743 5747 5751 5755 5758 5763 5766 5769 5773 5776 5780 5783 5786 5789 5792 5795 5798 5800 5803 5805 5808 5810 5812
5727 5725 5724 5723 5722 5722 5721 5721 5722 5722 5724 5725 5727 5729 5732 5735 5739 5742 5745 5748 5752 5755 5758 5762 5765 5769 5772 5774 5777 5780 5783 5786 5789 5791 5794 5797 5799 5801
5726 5724 5722 5721 5720 5719 5718 5718 5718 5718 5719 5720 5721 5722 5724 5727 5730 5733 5735 5739 5742 5744 5747 5751 5754 5757 5760 5762 5765 5768 5771 5774 5776 5779 5782 5785 5787 5790
5725 5722 5721 5719 5717 5716 5716 5715 5714 5714 5714 5714 5715 5716 5717 5719 5721 5723 5726 5729 5731 5734 5736 5740 5743 5745 5748 5751 5753 5756 5759 5761 5764 5767 5770 5773 5775 5777
5723 5721 5719 5717 5715 5714 5713 5712 5711 5710 5710 5710 5710 5710 5711 5712 5713 5715 5716 5719 5721 5724 5726 5729 5732 5734 5737 5740 5742 5744 5746 5749 5752 5754 5757 5760 5762 5765
5720 5718 5716 5714 5712 5711 5709 5708 5707 5706 5706 5705 5705 5705 5705 5705 5706 5707 5708 5710 5712 5715 5717 5718 5721 5723 5725 5729 5731 5732 5735 5737 5739 5741 5744 5747 5749 5752
5717 5715 5713 5711 5709 5707 5706 5704 5703 5702 5701 5700 5700 5699 5699 5699 5699 5699 5700 5702 5703 5705 5707 5709 5711 5712 5714 5717 5719 5721 5722 5725 5727 5729 5731 5734 5737 5739
5714 5711 5709 5707 5705 5703 5701 5700 5698 5697 5696 5695 5694 5693 5693 5692 5692 5692 5692 5693 5694 5695 5697 5699 5701 5702 5704 5706 5708 5710 5711 5713 5715 5717 5719 5722 5724 5727
5709 5707 5705 5703 5701 5698 5696 5695 5693 5692 5690 5689 5688 5687 5686 5685 5685 5684 5684 5684 5685 5686 5687 5688 5690 5692 5693 5695 5697 5698 5699 5701 5703 5705 5707 5710 5712 5714
5704 5702 5699 5697 5695 5693 5691 5689 5687 5685 5684 5683 5681 5680 5679 5678 5677 5676 5675 5675 5676 5677 5678 5679 5680 5681 5683 5684 5685 5687 5688 5690 5691 5693 5695 5697 5700 5702
5698 5696 5693 5691 5689 5686 5684 5682 5680 5678 5676 5674 5673 5672 5670 5669 5668 5667 5667 5666 5667 5668 5668 5669 5669 5670 5672 5673 5675 5676 5677 5678 5680 5681 5683 5685 5688 5690
5692 5689 5686 5684 5681 5679 5676 5674 5671 5669 5667 5665 5663 5662 5661 5660 5659 5658 5657 5657 5657 5658 5658 5658 5659 5660 5661 5663 5665 5665 5666 5667 5668 5670 5672 5674 5676 5679
5684 5681 5678 5675 5673 5670 5667 5665 5662 5660 5657 5655 5653 5652 5650 5649 5648 5647 5647 5646 5646 5647 5647 5648 5648 5649 5650 5652 5653 5654 5655 5656 5657 5659 5660 5662 5664 5666
5675 5672 5669 5666 5663 5660 5657 5655 5652 5649 5647 5644 5642 5640 5639 5637 5636 5635 5635 5634 5634 5634 5635 5636 5636 5637 5637 5639 5641 5643 5644 5644 5645 5647 5649 5650 5652 5655
5665 5662 5659 5656 5653 5649 5646 5644 5641 5638 5635 5633 5630 5628 5626 5625 5623 5622 5621 5621 5621 5621 5622 5623 5624 5624 5625 5627 5629 5631 5632 5633 5633 5635 5637 5639 5640 5643
5654 5651 5648 5644 5641 5637 5634 5631 5628 5625 5622 5620 5617 5615 5613 5611 5609 5608 5607 5607 5607 5607 5608 5609 5610 5611 5612 5613 5615 5618 5619 5620 5621 5623 5625 5627 5629 5631